{"data":{"norad_id":67283,"epoch":"2026-05-24T18:38:01.442112Z","epoch_age_seconds":88146,"freshness":"FRESH","line1":"1 67283U 25313AM  26144.77640558  .00005619  00000+0  23749-3 0  9997","line2":"2 67283  97.3939 220.0007 0011966  84.0248 276.2353 15.23567532 22403","mean_motion":15.23567532,"eccentricity":0.0011966,"inclination_deg":97.3939,"raan_deg":220.0007,"arg_perigee_deg":84.0248,"mean_anomaly_deg":276.2353,"bstar":0.00023749,"rev_number":2240,"period_min":94.515009656953,"perigee_km":486.86572572219,"apogee_km":503.31473312765,"semimajor_km":6873.2272294249,"source":"CELESTRAK","updated_at":"2026-05-25T13:38:06.854100Z"}}